Location: Arlington
(40.6323°N, 74.1651°W)
Time: 23:56:51
(UTC+00:00)

Cosmos 158 Rocket - Pass Details

Date: 22 November 2019
Orbit: 699 x 792 km, 74.0° (Epoch: 12 December)

Event Time Altitude Azimuth Distance (km) Brightness Sun altitude
Rises 22:04:02 0° 185° (S) 3,250 7.6 -6.0°
Reaches altitude 10° 22:06:28 10° 181° (S) 2,316 6.8 -6.5°
Maximum altitude 22:11:36 55° 105° (ESE) 916 4.2 -7.4°
Drops below altitude 10° 22:16:38 10° 28° (NNE) 2,275 6.0 -8.3°
Sets 22:19:00 0° 24° (NNE) 3,188 6.8 -8.7°
